Location: Austin
(30.3000°N, 97.7500°W)
Time: 23:05:10
(UTC-06:00)

Atlas Centaur 2 - Pass Details

Date: 03 December 2025
Orbit: 456 x 1250 km, 30.4° (Epoch: 07 December)

Event Time Altitude Azimuth Distance (km) Brightness Sun altitude
Exits shadow 05:35:06 29° 260° (W) 2,095 3.7 -20.4°
Maximum altitude 05:39:03 49° 203° (SSW) 1,554 3.4 -19.6°
Drops below altitude 10° 05:46:47 10° 131° (SE) 3,161 6.1 -18.0°
Sets 05:49:41 0° 126° (SE) 4,069 7.1 -17.4°
